Weather History for KAVL - March, 2008

Change the Weather History Date:

Monday, March 17, 2008

  Actual Average Record
Temperature  
Mean Temperature 42 °F 47 °F  
Max Temperature 52 °F 59 °F 85 °F (1945)
Min Temperature 31 °F 36 °F 17 °F (1890)
Degree Days  
Heating Degree Days 23 18  
Month to date heating degree days 328 334  
Since 1 July heating degree days 3311 3551  
Cooling Degree Days 0 0  
Month to date cooling degree days 0 0  
Year to date cooling degree days 0 0  
Moisture  
Dew Point 31 °F    
Average Humidity 69    
Maximum Humidity 100    
Minimum Humidity 38    
Precipitation  
Precipitation 0.00 in 0.12 in 2.00 in (1980)
Month to date precipitation 3.01 2.09  
Year to date precipitation 9.36 9.52  
Snow  
Snow 0.00 in 0.00 in 5.70 in (1936)
Month to date snowfall T 1.1  
Since 1 July snowfall 3.8 8.4  
Snow Depth -    
Sea Level Pressure  
Sea Level Pressure 30.41 in    
Wind  
Wind Speed 6 mph (SSE)    
Max Wind Speed 17 mph    
Max Gust Speed 21 mph    
Visibility 10 miles    
Events      
T = Trace of Precipitation, MM = Missing Value Source: NWS Daily Summary

Daily Weather History Graph

Daily Weather History Graph

Search for Another Location

Airport or City:

Trip Planner

Search our weather history database for the weather conditions in past years. The results will help you decide how hot, cold, wet, or windy it might be!

Date:

Astronomy

Mar. 17, 2008 Rise Set
Actual Time 7:37 AM EDT 7:39 PM EDT
Civil Twilight 7:12 AM EDT 8:05 PM EDT
Nautical Twilight 6:42 AM EDT 8:34 PM EDT
Astronomical Twilight 6:12 AM EDT 9:04 PM EDT
Moon 3:43 PM EDT (3/17) 5:21 AM EDT (3/17)
Length of Visible Light 12h 53m
Length of Day
12h 02m
Waxing Gibbous, 83% of the Moon is Illuminated
Mar 17
Waxing Gibbous
Mar 21
Full
Mar 29
Last Quarter
Apr 5
New
Apr 12
First Quarter

Hourly Weather History & Observations

Time (EDT) Temp. Windchill Dew Point Humidity Pressure Visibility Wind Dir Wind Speed Gust Speed Precip Events Conditions
12:54 AM 37.9 °F 35.5 °F 32.0 °F 79% 30.35 in 10.0 mi Variable 3.5 mph - N/A   Clear
1:54 AM 37.9 °F 34.4 °F 32.0 °F 79% 30.34 in 10.0 mi North 4.6 mph - N/A   Clear
2:54 AM 39.0 °F - 32.0 °F 76% 30.35 in 10.0 mi Calm Calm - N/A   Clear
3:54 AM 36.0 °F - 30.9 °F 82% 30.36 in 10.0 mi Calm Calm - N/A   Clear
4:54 AM 33.1 °F - 30.9 °F 92% 30.37 in 10.0 mi Calm Calm - N/A   Clear
5:54 AM 33.1 °F - 30.9 °F 92% 30.39 in 9.0 mi Calm Calm - N/A   Clear
6:54 AM 30.9 °F - 30.0 °F 96% 30.40 in 6.0 mi Calm Calm - N/A   Clear
7:54 AM 32.0 °F - 30.0 °F 92% 30.44 in 7.0 mi Calm Calm - N/A   Clear
8:54 AM 34.0 °F - 32.0 °F 92% 30.46 in 8.0 mi Calm Calm - N/A   Clear
9:54 AM 41.0 °F 35.2 °F 34.0 °F 76% 30.47 in 10.0 mi South 9.2 mph - N/A   Clear
10:54 AM 46.0 °F 40.6 °F 35.1 °F 66% 30.46 in 10.0 mi South 11.5 mph - N/A   Unknown
11:54 AM 48.0 °F - 33.1 °F 56% 30.45 in 10.0 mi SSE 13.8 mph - N/A   Clear
12:54 PM 48.0 °F - 33.1 °F 56% 30.45 in 10.0 mi SSE 12.7 mph - N/A   Clear
1:54 PM 50.0 °F - 32.0 °F 50% 30.43 in 10.0 mi SSE 12.7 mph - N/A   Clear
2:54 PM 51.1 °F - 30.0 °F 44% 30.41 in 10.0 mi SE 11.5 mph - N/A   Clear
3:54 PM 51.1 °F - 28.0 °F 41% 30.39 in 10.0 mi SE 11.5 mph - N/A   Clear
4:54 PM 52.0 °F - 28.0 °F 40% 30.39 in 10.0 mi SSE 10.4 mph - N/A   Clear
5:54 PM 51.1 °F - 27.0 °F 39% 30.39 in 10.0 mi SSE 11.5 mph 19.6 mph N/A   Clear
6:54 PM 50.0 °F - 28.0 °F 43% 30.40 in 10.0 mi SE 6.9 mph - N/A   Clear
7:54 PM 48.0 °F - 28.0 °F 46% 30.40 in 10.0 mi SSE 8.1 mph - N/A   Clear
8:54 PM 46.0 °F 42.5 °F 30.0 °F 54% 30.42 in 10.0 mi SSE 6.9 mph - N/A   Clear
9:54 PM 44.1 °F 42.5 °F 30.0 °F 58% 30.42 in 10.0 mi SSE 3.5 mph - N/A   Clear
10:54 PM 43.0 °F 41.3 °F 30.0 °F 60% 30.42 in 10.0 mi SSE 3.5 mph - N/A   Clear
11:54 PM 41.0 °F 36.4 °F 30.0 °F 65% 30.41 in 10.0 mi SSE 6.9 mph - N/A   Clear